"Pseudo-MPEC" for P12oVNR

Created 2026 Aug 17 10:35:06 UT using Find_Orb

Click here for an explanation of pseudo-MPECs

 
 Astrometry: 
     P12oVNR*0C2026 08 07.28744115 59 50.187+06 33 51.22   ~87AK 22.33wXNEOCPF51
     P12oVNR 0C2026 08 07.31092915 59 50.693+06 33 22.23   ~87AK 22.34wXNEOCPF51
     P12oVNR 0C2026 08 07.32263515 59 50.942+06 33 08.11   ~87AK 22.08wXNEOCPF51

Station data:
(F51) Pan-STARRS 1, Haleakala  (N20.707234 W156.255910)  US/Hawaii.
   Observers J. Herman, T. Lowe, P. Minguez, A. Schultz, I. Smith. Measurers
   K. Chambers, T. de Boer, J. Fairlamb, H. Gao, M. Huber, C.-C. Lin, E.
   Magnier, Y. Ramanjooloo, R. Wainscoat, R. Weryk. 1.8-m Ritchey-Chrétien +
   CCD.

Orbital elements:  P12oVNR
   Perihelion 2026 Jun 2.347212 +/- 134 TT =  8:19:59.1 (JD 2461193.847212)
Epoch 2026 Aug  7.0 TT = JDT 2461259.5   Earth MOID: 0.1545   Ve: 0.0511
M  13.935981618 +/- 80              Me: 0.0302                   AutoNEOCP
n   0.212267933 +/- 0.433           Peri.  231.111301 +/- 70
a   2.783213069 +/- 3.79            Node   292.382745 +/- 110
e   0.95144395 +/- 0.231            Incl.  129.036469 +/- 39
P   4.64322                H 19.58  G  0.15   U 12.2  SR
q 0.135141807 +/- 0.801    Q 5.431284330 +/- 27.2         (J2000 ecliptic)
From 3 observations 2026 Aug. 7 (50.7 min); mean residual 0".07
Residuals in arcseconds: 
260807 F51  .01-  .05+    260807 F51  .04+  .14-    260807 F51  .02-  .09+    

Ephemerides (geocentric):
Date (UTC) HH   RA             Dec           delta  r     elong  mag " sig PA
---- --------  ------------   ------------  ------ ------ -----  --- --------
2026 08 17 11  16 04 51.898   +03 46 25.51  1.3059 1.7031  93.7 22.8 2950  19
2026 08 17 12  16 04 53.321   +03 45 52.03  1.3071 1.7037  93.7 22.8 2968  19
2026 08 17 13  16 04 54.745   +03 45 18.59  1.3084 1.7043  93.6 22.8 2986  19
2026 08 17 14  16 04 56.170   +03 44 45.21  1.3096 1.7049  93.6 22.8 3005  19
2026 08 17 15  16 04 57.597   +03 44 11.88  1.3109 1.7055  93.6 22.8 3023  19
2026 08 17 16  16 04 59.025   +03 43 38.59  1.3121 1.7061  93.5 22.8 3042  19
2026 08 17 17  16 05 00.454   +03 43 05.36  1.3134 1.7067  93.5 22.8 3061  19
2026 08 17 18  16 05 01.885   +03 42 32.17  1.3146 1.7073  93.5 22.8 3079  19
2026 08 17 19  16 05 03.317   +03 41 59.03  1.3159 1.7079  93.5 22.8 3098  19
2026 08 17 20  16 05 04.750   +03 41 25.93  1.3171 1.7085  93.4 22.8 3117  19
2026 08 17 21  16 05 06.185   +03 40 52.89  1.3183 1.7092  93.4 22.8 3135  19
2026 08 17 22  16 05 07.621   +03 40 19.89  1.3196 1.7098  93.4 22.8 3154  19
2026 08 17 23  16 05 09.058   +03 39 46.94  1.3208 1.7104  93.3 22.8 3173  19
2026 08 18 00  16 05 10.497   +03 39 14.04  1.3221 1.7110  93.3 22.8 3192  19
2026 08 18 01  16 05 11.937   +03 38 41.18  1.3233 1.7116  93.3 22.8 3211  20
2026 08 18 02  16 05 13.378   +03 38 08.38  1.3246 1.7122  93.3 22.8 3230  20
2026 08 18 03  16 05 14.820   +03 37 35.62  1.3258 1.7128  93.2 22.8 3250  20
2026 08 18 04  16 05 16.264   +03 37 02.90  1.3270 1.7134  93.2 22.8 3269  20
2026 08 18 05  16 05 17.709   +03 36 30.24  1.3283 1.7140  93.2 22.8 3288  20
2026 08 18 06  16 05 19.155   +03 35 57.62  1.3295 1.7146  93.1 22.8 3307  20
2026 08 18 07  16 05 20.603   +03 35 25.04  1.3308 1.7152  93.1 22.8 3327  20
2026 08 18 08  16 05 22.052   +03 34 52.52  1.3320 1.7158  93.1 22.9 3346  20
2026 08 18 09  16 05 23.502   +03 34 20.04  1.3333 1.7164  93.1 22.9 3366  20
2026 08 18 10  16 05 24.953   +03 33 47.60  1.3345 1.7171  93.0 22.9 3385  20
2026 08 18 11  16 05 26.406   +03 33 15.21  1.3357 1.7177  93.0 22.9 3405  20
2026 08 18 12  16 05 27.860   +03 32 42.87  1.3370 1.7183  93.0 22.9 3425  20
2026 08 18 13  16 05 29.315   +03 32 10.58  1.3382 1.7189  92.9 22.9 3444  20
2026 08 18 14  16 05 30.772   +03 31 38.33  1.3395 1.7195  92.9 22.9 3464  20
2026 08 18 15  16 05 32.230   +03 31 06.12  1.3407 1.7201  92.9 22.9 3484  20
2026 08 18 16  16 05 33.689   +03 30 33.96  1.3420 1.7207  92.9 22.9 3504  20
2026 08 18 17  16 05 35.149   +03 30 01.85  1.3432 1.7213  92.8 22.9 3524  21
2026 08 18 18  16 05 36.611   +03 29 29.78  1.3444 1.7219  92.8 22.9 3544  21
2026 08 18 19  16 05 38.074   +03 28 57.76  1.3457 1.7225  92.8 22.9 3564  21
2026 08 18 20  16 05 39.538   +03 28 25.78  1.3469 1.7231  92.7 22.9 3584  21
2026 08 18 21  16 05 41.003   +03 27 53.85  1.3482 1.7237  92.7 22.9 3605  21
2026 08 18 22  16 05 42.470   +03 27 21.96  1.3494 1.7243  92.7 22.9 3625  21
2026 08 18 23  16 05 43.938   +03 26 50.11  1.3507 1.7249  92.7 22.9 3645  21
2026 08 19 00  16 05 45.407   +03 26 18.32  1.3519 1.7255  92.6 22.9 3666  21
2026 08 19 01  16 05 46.877   +03 25 46.56  1.3531 1.7261  92.6 22.9 3686  21
2026 08 19 02  16 05 48.349   +03 25 14.85  1.3544 1.7267  92.6 22.9 3707  21
2026 08 19 03  16 05 49.822   +03 24 43.19  1.3556 1.7273  92.5 22.9 3727  21
2026 08 19 04  16 05 51.296   +03 24 11.56  1.3569 1.7279  92.5 22.9 3748  21
2026 08 19 05  16 05 52.771   +03 23 39.99  1.3581 1.7285  92.5 22.9 3769  21
2026 08 19 06  16 05 54.248   +03 23 08.45  1.3593 1.7291  92.5 22.9 3790  21
2026 08 19 07  16 05 55.726   +03 22 36.96  1.3606 1.7298  92.4 22.9 3811  21
2026 08 19 08  16 05 57.205   +03 22 05.52  1.3618 1.7304  92.4 22.9 3832  21
2026 08 19 09  16 05 58.685   +03 21 34.12  1.3631 1.7310  92.4 22.9 3853  22
2026 08 19 10  16 06 00.167   +03 21 02.76  1.3643 1.7316  92.3 22.9 3874  22